Time,TemperatureF,DewpointF,PressureIn,WindDirection,WindDirectionDegrees,WindSpeedMPH,WindSpeedGustMPH,Humidity,HourlyPrecipIn,Conditions,Clouds,dailyrainin,SoftwareType,DateUTC
2013-02-05 09:08:00,28.9,24.7,29.73,West,270,0.0,-999.0,84,-99.99,,,0.00,Acu-Link.com,2013-02-05 14:08:00,
2013-02-05 09:30:00,28.9,24.1,29.73,WSW,247,0.0,-999.0,82,-99.99,,,0.00,Acu-Link.com,2013-02-05 14:30:00,
2013-02-05 09:49:00,30.2,25.7,29.74,WSW,247,0.0,-999.0,83,-99.99,,,0.00,Acu-Link.com,2013-02-05 14:49:00,
2013-02-05 10:08:00,34.5,29.0,29.73,SSW,202,0.0,-999.0,80,-99.99,,,0.00,Acu-Link.com,2013-02-05 15:08:00,
2013-02-05 10:27:00,34.5,29.0,29.72,West,270,0.0,-999.0,80,-99.99,,,0.00,Acu-Link.com,2013-02-05 15:27:00,
2013-02-05 11:02:00,34.0,33.5,29.72,East,90,0.0,-999.0,98,-99.99,,,0.00,Acu-Link.com,2013-02-05 16:02:00,
2013-02-05 11:23:00,33.6,33.1,29.73,WSW,247,0.0,-999.0,98,-99.99,,,0.00,Acu-Link.com,2013-02-05 16:23:00,
2013-02-05 11:42:00,33.8,33.3,29.73,WSW,247,0.0,-999.0,98,-99.99,,,0.00,Acu-Link.com,2013-02-05 16:42:00,
2013-02-05 11:58:00,33.4,32.9,29.72,WSW,247,0.0,-999.0,98,-99.99,,,0.00,Acu-Link.com,2013-02-05 16:58:00,
2013-02-05 12:18:00,33.4,32.9,29.72,SW,225,0.0,-999.0,98,-99.99,,,0.00,Acu-Link.com,2013-02-05 17:18:00,
2013-02-05 12:34:00,33.1,32.6,29.71,WSW,247,0.0,-999.0,98,-99.99,,,0.00,Acu-Link.com,2013-02-05 17:34:00,
2013-02-05 12:50:00,32.5,32.0,29.70,West,270,0.0,-999.0,98,-99.99,,,0.00,Acu-Link.com,2013-02-05 17:50:00,
2013-02-05 13:12:00,32.9,32.4,29.69,West,270,0.0,-999.0,98,-99.99,,,0.00,Acu-Link.com,2013-02-05 18:12:00,
2013-02-05 13:29:00,32.9,32.4,29.69,SW,225,0.0,-999.0,98,-99.99,,,0.00,Acu-Link.com,2013-02-05 18:29:00,
2013-02-05 13:46:00,32.0,31.5,29.69,West,270,0.0,-999.0,98,-99.99,,,0.00,Acu-Link.com,2013-02-05 18:46:00,
2013-02-05 14:05:00,32.0,31.5,29.69,SSW,202,0.0,-999.0,98,-99.99,,,0.00,Acu-Link.com,2013-02-05 19:05:00,
2013-02-05 14:26:00,32.5,32.0,29.68,WSW,247,0.0,-999.0,98,-99.99,,,0.00,Acu-Link.com,2013-02-05 19:26:00,
2013-02-05 14:44:00,32.4,31.9,29.68,WNW,292,0.0,-999.0,98,-99.99,,,0.00,Acu-Link.com,2013-02-05 19:44:00,
2013-02-05 14:59:00,32.4,31.9,29.68,West,270,0.0,-999.0,98,-99.99,,,0.00,Acu-Link.com,2013-02-05 19:59:00,
2013-02-05 15:19:00,32.2,31.7,29.69,WNW,292,0.0,-999.0,98,-99.99,,,0.00,Acu-Link.com,2013-02-05 20:19:00,
2013-02-05 15:38:00,32.4,31.9,29.69,WNW,292,0.0,-999.0,98,-99.99,,,0.00,Acu-Link.com,2013-02-05 20:38:00,
2013-02-05 15:59:00,32.4,31.9,29.69,West,270,0.0,-999.0,98,-99.99,,,0.00,Acu-Link.com,2013-02-05 20:59:00,
2013-02-05 16:15:00,32.2,31.7,29.70,SW,225,0.0,-999.0,98,-99.99,,,0.00,Acu-Link.com,2013-02-05 21:15:00,
2013-02-05 16:37:00,32.2,31.7,29.70,NW,315,2.7,-999.0,98,-99.99,,,0.00,Acu-Link.com,2013-02-05 21:37:00,
2013-02-05 16:53:00,32.4,30.6,29.70,NNW,337,11.4,-999.0,93,-99.99,,,0.00,Acu-Link.com,2013-02-05 21:53:00,
2013-02-05 17:09:00,32.2,30.1,29.71,West,270,12.5,-999.0,92,-99.99,,,0.00,Acu-Link.com,2013-02-05 22:09:00,
2013-02-05 17:26:00,32.2,30.1,29.71,SW,225,10.9,-999.0,92,-99.99,,,0.00,Acu-Link.com,2013-02-05 22:26:00,
2013-02-05 17:46:00,32.2,30.1,29.71,West,270,12.5,-999.0,92,-99.99,,,0.00,Acu-Link.com,2013-02-05 22:46:00,
2013-02-05 18:02:00,32.2,30.1,29.72,SW,225,10.9,-999.0,92,-99.99,,,0.00,Acu-Link.com,2013-02-05 23:02:00,
2013-02-05 18:18:00,31.5,31.0,29.72,WNW,292,9.4,-999.0,98,-99.99,,,0.00,Acu-Link.com,2013-02-05 23:18:00,
2013-02-05 18:36:00,31.3,30.8,29.72,SSE,157,3.2,-999.0,98,-99.99,,,0.00,Acu-Link.com,2013-02-05 23:36:00,
2013-02-05 18:56:00,31.3,30.8,29.73,West,270,9.4,-999.0,98,-99.99,,,0.00,Acu-Link.com,2013-02-05 23:56:00,
2013-02-05 19:14:00,31.3,30.8,29.74,West,270,13.5,-999.0,98,-99.99,,,0.00,Acu-Link.com,2013-02-06 00:14:00,
2013-02-05 19:38:00,30.9,30.4,29.74,West,270,4.2,-999.0,98,-99.99,,,0.00,Acu-Link.com,2013-02-06 00:38:00,
2013-02-05 19:53:00,30.7,30.2,29.74,WNW,292,9.4,-999.0,98,-99.99,,,0.00,Acu-Link.com,2013-02-06 00:53:00,
2013-02-05 20:08:00,30.6,30.1,29.74,NE,45,6.8,-999.0,98,-99.99,,,0.00,Acu-Link.com,2013-02-06 01:08:00,
2013-02-05 20:25:00,30.4,29.9,29.75,NNW,337,7.3,-999.0,98,-99.99,,,0.00,Acu-Link.com,2013-02-06 01:25:00,
2013-02-05 20:49:00,28.9,28.4,29.75,WNW,292,5.3,-999.0,98,-99.99,,,0.00,Acu-Link.com,2013-02-06 01:49:00,
2013-02-05 21:08:00,28.8,28.3,29.75,WNW,292,6.8,-999.0,98,-99.99,,,0.00,Acu-Link.com,2013-02-06 02:08:00,
2013-02-05 21:27:00,28.6,28.1,29.77,East,90,0.0,-999.0,98,-99.99,,,0.00,Acu-Link.com,2013-02-06 02:27:00,
2013-02-05 21:45:00,28.2,27.7,29.77,SSE,157,2.7,-999.0,98,-99.99,,,0.00,Acu-Link.com,2013-02-06 02:45:00,
2013-02-05 22:01:00,28.0,27.5,29.77,North,0,3.2,-999.0,98,-99.99,,,0.00,Acu-Link.com,2013-02-06 03:01:00,
2013-02-05 22:17:00,28.0,27.5,29.78,West,270,6.3,-999.0,98,-99.99,,,0.00,Acu-Link.com,2013-02-06 03:17:00,
2013-02-05 22:33:00,27.3,26.8,29.78,ESE,112,1.7,-999.0,98,-99.99,,,0.00,Acu-Link.com,2013-02-06 03:33:00,
2013-02-05 22:51:00,27.1,26.6,29.79,WSW,247,2.2,-999.0,98,-99.99,,,0.00,Acu-Link.com,2013-02-06 03:51:00,
2013-02-05 23:08:00,27.1,26.6,29.79,SSW,202,0.0,-999.0,98,-99.99,,,0.00,Acu-Link.com,2013-02-06 04:08:00,
2013-02-05 23:26:00,27.1,26.6,29.78,WSW,247,0.0,-999.0,98,-99.99,,,0.00,Acu-Link.com,2013-02-06 04:26:00,
2013-02-05 23:46:00,27.1,26.6,29.78,West,270,0.0,-999.0,98,-99.99,,,0.00,Acu-Link.com,2013-02-06 04:46:00,